Aérodrome :
LOGIN :

S'inscrire | Disclaimer

   EN    FR    IT 

 










Légende :    VFR   VFR Marginal   IFR   IFR Intensif   IFR Très Intensif
Visi : 
Plafond : 
>= 8 km
>= 3000ft
5 à 8 km
1000 à 3000 ft
1500m à 5 km
500 à 1000 ft
800 à 1500m
200 à 500 ft
< 800m
< 200 ft
Symboles :   Orages  Brouillard  Fortes neiges  Fortes précipitations  Vent > 20 kt
SIGMETs :   Divers  Orages  Givrage  Turbulence  Onde Orograph.  Cendres Volcan.







- Altitude de l'aérodrome : 124 ft
- Code IATA : NHT
- Voir les cartes d'approche


EGWU - RAF Northolt

DERNIER METAR :
  • 210250Z AUTO 27008KT 9999 // OVC011/// 10/07 Q1032

METARs EXPIRÉS :
  • 210150Z AUTO 25006KT 9999 // OVC012/// 10/08 Q1033
  • 210050Z AUTO 23005KT 9999 // OVC015/// 10/07 Q1033

TAF TAF EGWU
Valide du 20 à 21h jusqu'au 21 à 15h UTC


201931Z 2021/2115 22004KT 9999 BKN020
BECMG 2023/2101 BKN010
PROB30
TEMPO 2100/2106 5000 BR SCT006
BECMG 2111/2114 BKN020
PROB30 2114/2115 BKN025
Pas de NOTAMs connus pour ce terrain.



MET'MAP, la Météo Aéronautique d'un coup d'oeil ! - Copyright ORBIFLY Décembre 2007 - Disclaimer

ORBIFLY MET'MAP TEAM :

Programmation & Développement : Alexandra Zaïnal
Conception & Développement : Baudouin d'Aumeries
Co-Programmation & Développement : Marc-Olivier Méhu
Soutien technique & logistique : Manuel Goepfert

Contact : metmap@orbifly.com




SOURCES & CREDITS :

   NOAA